Other Public Products
Issued by NWS Grand Forks, ND

Home | Current Version | Previous Version | Text Only | Print | Product List | Glossary On
Versions: 1 2 3 4 5 6 7 8 9 10 11 12 13 14 15 16 17 18 19 20 21 22 23 24 25 26 27 28 29 30 31 32 33 34 35 36 37 38 39 40 41 42 43 44 45 46 47 48 49 50
000
FPUS83 KFGF 141010
OPUFGF
PRAIRIE TO PINES WEATHER ROUNDUP
NATIONAL WEATHER SERVICE EASTERN NORTH DAKOTA/GRAND FORKS ND
500 AM CDT MON JUL 14 2014

 **SATELLITE DATA USED TO AUGMENT SKY COVER AT AUTOMATED STATIONS**
 *****  WEATHER ACROSS EASTERN NORTH DAKOTA  *****

CITY           SKY/WX    TMP DP  RH WIND       PRES   REMARKS
GRAND FORKS    PTCLDY    49  46  90 N12G21    30.03R
GRAND FORKS AF CLEAR     47  47  99 N12       30.05R
GRAND CITY NWS   N/A     48 N/A N/A N12         N/A
BUXTON         NOT AVBL
DEVILS LAKE    MOCLDY    52  43  71 N15       30.09R
FARGO          PTCLDY    53  46  77 N21G28    30.01R
WAHPETON ARPT  PTSUNNY   55  45  67 NW14G21   30.00R
$$

 *****  WEATHER ACROSS CENTRAL AND WESTERN NORTH DAKOTA  *****

CITY           SKY/WX    TMP DP  RH WIND       PRES   REMARKS
JAMESTOWN      MOCLDY    54  48  80 N12       30.08R
BISMARCK       CLEAR     54  47  77 N10       30.18R
MINOT          PTCLDY    50  46  86 NW9       30.18R
MINOT AFB      CLEAR     50  49  97 NW9       30.19R
GARRISON         N/A     49  46  90 NW8       30.19R
WILLISTON      CLEAR     49  45  86 N3        30.27R
DICKINSON      CLEAR     44  41  89 NW5       30.23R
HETTINGER      CLEAR     44  40  85 W5        30.24R
$$

 *****  OTHER OBSERVATIONS NORTHEAST NORTH DAKOTA  *****

CITY           SKY/WX    TMP DP  RH WIND       PRES   REMARKS
WALHALLA         N/A     46  46 100 N15         N/A
LANGDON        CLOUDY    48  46  93 N9        30.09R
CAVALIER       FAIR      46  45  93 N10       30.07R
GRAFTON        PTSUNNY   48  46  93 NW14G20   30.05R
CANDO          CLOUDY    50  48  93 N13       30.13R
FORT TOTTEN      N/A     53  47  81 N7        29.95
ROLLA          CLOUDY    48  48 100 N13       30.15R
RUGBY          FAIR      46  46 100 N8        30.15R
 ***** THE ABOVE OBSERVATIONS ARE NON NWS ARE NOT QUALITY
        CONTROLLED AND MAY MIS-REPORT RAIN FOR SNOW...
$$

 *****  OTHER OBSERVATIONS SOUTHEAST NORTH DAKOTA *****

CITY           SKY/WX    TMP DP  RH WIND       PRES   REMARKS
COOPERSTOWN    NOT AVBL
VALLEY CITY    FAIR      52  52 100 N14G20    30.06R
OAKES          NOT AVBL
GWINNER        PTSUNNY   57  46  67 NW9       30.05R
SHEYENNE NWR     N/A     56  47  72 N12       29.95S
BUFFALO        NOT AVBL
WYNDMERE       NOT AVBL
 ***** THE ABOVE OBSERVATIONS ARE NON NWS ARE NOT QUALITY
       CONTROLLED AND MAY MIS-REPORT RAIN FOR SNOW...
$$

  *****  WEATHER ACROSS NORTHERN MINNESOTA  *****

CITY           SKY/WX    TMP DP  RH WIND       PRES   REMARKS
FLAG ISLAND    CLOUDY    54  50  87 N26G33    29.90R
WARROAD        CLOUDY    48  45  87 NW12      29.94R
ROSEAU         CLOUDY    48  45  87 NW14G20   29.95R
HALLOCK        MOCLDY    48  46  93 N15G22    30.02R
THF RVR FALLS  CLOUDY    48  45  87 NW16      29.98R
HALSTAD          N/A     50  45  81 N13         N/A
FOSSTON        CLOUDY    46  45  93 NW15G23   29.98R
BAUDETTE         N/A     52  49  89 N14       29.88R
WASKISH        DRIZZLE   50  48  93 W6        29.88R
CROOKSTON      CLOUDY    48  48 100 N15G24    30.02R
$$
  *****  WEATHER ACROSS CENTRAL AND WEST MINNESOTA  *****

CITY           SKY/WX    TMP DP  RH WIND       PRES   REMARKS
BEMIDJI        CLOUDY    46  45  93 NW15G22   29.91R
PARK RAPIDS    LGT RAIN  50  47  89 NW24G32   29.91R
WADENA         CLEAR     50  45  81 NW14G20   29.93R
DETROIT LAKES  CLOUDY    52  48  87 N20G28    29.97R
MOORHEAD       PTCLDY    54  48  82 N18       30.01R
FERGUS FALLS   PTCLDY    54  46  76 NW15      29.98S
ELBOW LAKE     NOT AVBL
MORRIS MN      PTCLDY    57  46  67 NW13      29.97R
STAPLES        MOCLDY    52  48  87 NW12      29.92R
WHEATON        CLOUDY    57  46  67 NW16G23   30.02R
$$
  *****  WEATHER ELSEWHERE ACROSS MINNESOTA  *****

CITY           SKY/WX    TMP DP  RH WIND       PRES   REMARKS
DULUTH         LGT RAIN  52  49  89 W8        29.82S
INTRNTL FALLS  LGT RAIN  50  48  93 NW10      29.81R
ELY            LGT RAIN  48  46  93 W3        29.79S
CLOQUET        LGT RAIN  52  48  87 W8        29.84R
BRAINERD       CLOUDY    59  47  64 NW14G22   29.90R
HIBBING        CLOUDY    50  45  83 NW9       29.82S
ALEXANDRIA     CLOUDY    58  46  64 NW21G29   29.95R
SAINT CLOUD    MOCLDY    60  50  69 W7        29.90R
MINNEAPOLIS    MOCLDY    61  50  67 NW6       29.89R
$$

  *****  WEATHER ACROSS SOUTH DAKOTA  *****

CITY           SKY/WX    TMP DP  RH WIND       PRES   REMARKS
SIOUX FALLS    PTCLDY    55  47  74 W8        30.01R
BROOKINGS      NOT AVBL
WATERTOWN      CLOUDY    59  50  72 NW16G22   30.02R
HURON          CLEAR     51  47  86 NW8       30.06R
SISSETON         N/A     59  47  64 N20G25    30.01R
ABERDEEN       PTCLDY    54  47  77 NW16      30.08R
MITCHELL       CLEAR     53  46  77 NW10      30.06R
PIERRE         CLEAR     55  47  74 N14       30.12R
MOBRIDGE       CLEAR     51  48  89 N8        30.13R
RAPID CITY     PTCLDY    54  47  77 NW13      30.22R
$$

  *****  SOME WEATHER IN NEARBY STATES *****

CITY           SKY/WX    TMP DP  RH WIND       PRES   REMARKS
GLASGOW MT     CLEAR     48  44  86 NE6       30.31R
GREAT FALLS MT PTCLDY    65  50  58 E13       30.25F
CHEYENNE WY    CLEAR     59  52  77 NW8       30.34R
SCOTTSBLUFF NE CLEAR     61  57  87 N7        30.22R
OMAHA NE       RAIN      69  60  73 N15       30.03R
DES MOINES IA  PTCLDY    68  63  84 N7        29.93R
DAVENPORT IA     N/A     65  63  93 SW3       29.88F
CHICAGO IL     PTCLDY    63  55  75 W5        29.87F
EAU CLAIRE WI  CLOUDY    57  53  86 SW3       29.86R
LA CROSSE WI   CLEAR     59  56  89 SE5       29.87R
$$

  *****  SOME NATIONAL WEATHER *****

CITY           SKY/WX    TMP DP  RH WIND       PRES   REMARKS
LA GUARDIA NY  MOCLDY    73  69  87 SW8       29.90S
RALEIGH NC     MOCLDY    76  70  82 S6        30.01S
ATLANTA GA     PTCLDY    72  70  93 SW5       30.06R
NEW ORLEANS LA MOCLDY    78  75  90 SW6       30.03S
OKLAHOMA CITY  PTCLDY    77  67  71 N6        29.99S
ALBUQUERQUE NM PTCLDY    67  55  65 NE3       30.28R
SALT LAKE CITY PTCLDY    82  43  25 S6        30.08S
LOS ANGELES CA MOCLDY    69  62  78 S3        29.92S
BOISE ID       CLEAR     86  41  20 VRB6      29.93R
SEATTLE WA     PTCLDY    63  56  78 W3        30.11F
$$

*** WEATHER ACROSS MANITOBA...SASKATCHEWAN AND ONTARIO ***
                ***ONTARIO***

CITY           SKY/WX    TMP DP  RH WIND       PRES   REMARKS
GERALDTON      PTCLDY    48  46  93 W2        29.75S
THUNDER BAY    PTCLDY    46  46 100 NW3       29.79R
SIOUX LOOKOUT  MOCLDY    48  48 100 N5        29.82R
TORONTO        MOCLDY    63  50  63 NE2       29.90R
BIG TROUT LK   CLOUDY    48  45  87 N9G22     29.92R
PICKLE LAKE    NOT AVBL
DRYDEN         MOCLDY    50  48  93 N7        29.83R
KENORA         LGT RAIN  50  48  93 N13G18    29.90R FOG
$$
                *** MANITOBA***

CITY           SKY/WX    TMP DP  RH WIND       PRES   REMARKS
BRANDON        PTCLDY    50  45  81 N10       30.18R
DAUPHIN        MOCLDY    52  48  87 NW6       30.20R
ISLAND LAKE    MOCLDY    52  50  93 N7        30.12R
PILOT MOUND      N/A     48  46  93 N13G18      N/A
THE PAS        CLEAR     54  50  87 NE6       30.26R
THOMPSON       CLOUDY    52  52 100 N9        30.24R
WINNIPEG       PTCLDY    46  45  93 NW12      30.07R
LYNN LAKE      CLOUDY    46  46 100 NE3       30.31S
CHURCHILL      PTCLDY    43  43 100 N9        30.25S
GILLAM         CLOUDY    45  45 100 N14G20    30.21R FOG
$$
                ***SASKATCHEWAN***

CITY           SKY/WX    TMP DP  RH WIND       PRES   REMARKS
ESTEVAN        PTCLDY    46  45  93 NW7       30.27R
KINDERSLEY     CLEAR     48  43  81 S5        30.33F
LLOYDMINSTER   CLEAR     50  45  81 S8        30.33S
PRINCE ALBERT  PTCLDY    43  43 100 CALM      30.33R
REGINA         NOT AVBL


USA.gov is the U.S. government's official web portal to all federal, state and local government web resources and services.